Skip Page Navigation
NASA JPL Caltech
NASA Logo - Jet Propulsion Laboratory + View the NASA Portal
+ Near-Earth Object (NEO) Program
Search JPL
JPL Home Earth Solar System Stars & Galaxies Technology
JPL Solar System Dynamics
BODIES ORBITS EPHEMERIDES TOOLS PHYSICAL DATA DISCOVERY FAQ SITE MAP
JPL Small-Body Database Browser
Search: [ help ]  
(2006 RZ)
Classification: Apollo [NEO, PHA]          SPK-ID: 3341129
Ephemeris | Orbit Diagram | Orbital Elements | Physical Parameters | Close-Approach Data ]

[ hide orbit diagram ]
Orbit Diagram
Note: Make sure you have Java enabled on your browser to see the applet. This applet is provided as a 3D orbit visualization tool. The applet was implemented using 2-body methods, and hence should not be used for determining accurate long-term trajectories (over several years or decades) or planetary encounter circumstances. For accurate long-term ephemerides, please instead use our Horizons system.
Orbit Viewer

Additional Notes: the orbits shown in the applet are color coded. The planets are white lines, and the asteroid/comet is a blue line. The bright white line indicates the portion of the orbit that is above the ecliptic plane, and the darker portion is below the ecliptic plane. Likewise for the asteroid/comet orbit, the light blue indicates the portion above the ecliptic plane, and the dark blue the portion below the ecliptic plane.

Orbit Viewer applet originally written and kindly provided by Osamu Ajiki (AstroArts), and further modified by Ron Baalke (JPL).


Orbital Elements at Epoch 2456400.5 (2013-Apr-18.0) TDB
Reference: JPL 52 (heliocentric ecliptic J2000)
 Element Value Uncertainty (1-sigma)   Units 
e .6426772292192995 1.1776e-07  
a 2.464387029178314 9.0575e-07 AU
q .8805816015420143 4.3439e-08 AU
i 9.022913460130482 2.8254e-06 deg
node 197.487386284204 2.6716e-06 deg
peri 221.06657257 1.2377e-05 deg
M 239.9511155454032 0.0003283 deg
tp 2456871.713176744378
(2014-Aug-02.21317674)
0.0015484 JED
period 1413.063889753458
3.87
0.00077903
2.133e-06
d
yr
n .2547655506665097 1.4045e-07 deg/d
Q 4.048192456814614 1.4879e-06 AU
  Orbit Determination Parameters
   # obs. used (total)      898  
   # delay obs. used      4  
   # Doppler obs. used      2  
   data-arc span      175 days  
   first obs. used      2006-09-01  
   last obs. used      2007-02-23  
   planetary ephem.      DE405  
   SB-pert. ephem.      SB405-CPV-2  
   condition code      1  
   fit RMS      .43894  
   data source      ORB  
   producer      Otto Matic  
   solution date      2011-Sep-14 20:11:20  

Additional Information
 Earth MOID = .0118092 AU 
 T_jup = 3.153 
[ show covariance matrix ]

Ephemeris | Orbit Diagram | Orbital Elements | Physical Parameters | Close-Approach Data ]

Physical Parameter Table
Parameter Symbol Value Units Sigma Reference Notes
absolute magnitude H 20.319 mag .53874 52 autocmod 2.5a
rotation period rot_per 4.960 h n/a Asteroid Lightcurve DataBase (Rev. 2013-May-01) Result based on less than full coverage, so that the period may be wrong by 30 percent or so.
Published Reference List:
[Pravec, P.; Wolf, M.; Sarounova, L. (2006) http://www.asu.cas.cz/~ppravec/neo.htm]
[Vander Haagen, G. (2007) Minor Planet Bul. 34, 29.]

[ show close-approach data ]
Ephemeris | Orbit Diagram | Orbital Elements | Physical Parameters | Close-Approach Data ]
ABOUT SSD CREDITS/AWARDS PRIVACY/COPYRIGHT GLOSSARY LINKS
FirstGov 2013-May-25 23:19 UT
(server date/time)  
NASA Home Page
Site Manager:   Donald K. Yeomans
Webmaster  Alan B. Chamberlin